Regional Weather Roundup
Issued by NWS

Home | Current Version | Previous Version | Text Only | Print | Product List | Glossary On
Versions: 1 2 3 4 5 6 7 8 9 10 11 12 13 14 15 16 17 18 19 20 21 22 23 24 25 26 27 28 29 30 31 32 33 34 35 36 37 38 39 40 41 42 43 44 45 46 47 48 49 50
000
ASUS43 KLOT 230409
RWRIL

ILLINOIS REGIONAL WEATHER ROUNDUP
NATIONAL WEATHER SERVICE CHICAGO/ROMEOVILLE IL
1100 PM CDT SUN OCT 22 2017

NOTE: "FAIR" INDICATES FEW OR NO CLOUDS BELOW 12,000 FEET WITH NO
SIGNIFICANT WEATHER AND/OR OBSTRUCTIONS TO VISIBILITY.

* THESE STATIONS ARE NOT UNDER NWS QUALITY CONTROL. THEY ALSO MAY NOT
  REPORT WEATHER SUCH AS PRECIPITATION OR FOG.

ILZ001-002-007-009-015-016-024-230500-
NORTHWEST ILLINOIS

CITY           SKY/WX    TMP DP  RH WIND       PRES   REMARKS
MOLINE         CLOUDY    51  48  89 CALM      30.04S
STERLING*      CLOUDY    50  49  96 CALM        N/A
SAVANNA*       CLOUDY    49  49  99 CALM      30.05S
$$

ILZ003-004-008-010-011-017-018-230500-
NORTH CENTRAL ILLINOIS

CITY           SKY/WX    TMP DP  RH WIND       PRES   REMARKS
ROCKFORD       LGT RAIN  50  48  93 N3        30.05F
FREEPORT*      CLOUDY    47  47  98 CALM      30.06F
ROCHELLE*      CLOUDY    50  49  97 CALM      30.03F
DE KALB*       RAIN      50  49  98 N5        30.02F
PERU*          CLOUDY    50  48  93 N5        30.03S
$$

ILZ005-006-012>014-019>023-230500-
NORTHEAST ILLINOIS

CITY           SKY/WX    TMP DP  RH WIND       PRES   REMARKS
CHICAGO-OHARE  LGT RAIN  52  49  89 N9        30.01F
CHICAGO-MIDWAY LGT RAIN  53  52  96 N9        30.00F
AURORA         LGT RAIN  51  51 100 N7        30.01F
LANSING*       HVY RAIN  54  54 100 N7        30.01F
JOLIET*        DRIZZLE   53  52  97 N6        30.01F
WAUKEGAN       LGT RAIN  51  50  96 NW3       30.02F FOG
DUPAGE AIRPORT LGT RAIN  50  50 100 N8        30.01F FOG
KANKAKEE*      RAIN      53  52  97 N8        30.01F
WHEELING       LGT RAIN  52  51  97 N7        30.03F
MORRIS*        LGT RAIN  51  50  95 N3        30.00F
ROMEOVILLE*    RAIN      51  50  97 N7        30.01F
NORTHERLY ISL    N/A     54  52  93 N8          N/A
$$

LMZ740>746-230500-
SOUTHERN LAKE MICHIGAN

STATION/POSITION SKY/WX   TEMP    WIND        PRES    VSBY  WAVE
                          AIR SEA DIR/SP/G                  HT/PER
                          (F)     (DEG/KT/KT) (MB)    (MI)  (FT/S)
SOUTHERN BUOY              55 60   20/ 12/ 14 1016.5          3/ 6
WILMETTE HARBOR            53 57  340/ 10/ 14   N/A           3/ 5
HARRISON CRIB              55     350/ 13/ 14   N/A
BURNHAM HARBOR             54     340/ 11/ 11   N/A
CALUMET HARBOR             54     340/  8/ 11 1015.7F
BURNS HARBOR               56      30/ 12/ 15 1016.3F
MICHIGAN CITY              56     360/ 13/ 14   N/A
MICHIGAN CITY 6N           56 58   30/ 12/ 14   N/A           5/ 6
ST. JOSEPH                 57 59   40/ 12/ 16 1016.1          5/ 6
$$

ILZ025>027-034>036-040-047-049-050-058-095>099-230500-
WEST-CENTRAL ILLINOIS

CITY           SKY/WX    TMP DP  RH WIND       PRES   REMARKS
QUINCY         CLOUDY    51  50  96 CALM      30.05F
MACOMB*        CLOUDY    51  49  95 N3        30.06F
JACKSONVILLE*  CLOUDY    51  49  95 NW9       30.03F
PITTSFIELD*    CLOUDY    51  48  89 N5        30.05F
$$

ILZ028>032-037-038-041>044-048-051>054-059>061-230500-
CENTRAL ILLINOIS

CITY           SKY/WX    TMP DP  RH WIND       PRES   REMARKS
PONTIAC        DRIZZLE   52  51  98 N6        30.01F
BLOOMINGTON    LGT RAIN  51  50  96 N13       30.00F
DECATUR        LGT RAIN  52  52 100 N9        29.99F FOG
PEORIA         CLOUDY    51  50  96 N5        30.02F
LACON*         CLOUDY    51  50  99 N5        30.02F
LINCOLN*       CLOUDY    52  52  99 NW5       30.01S
SPRINGFIELD    LGT RAIN  53  52  96 N7        30.01F FOG
TAYLORVILLE    DRIZZLE   51  51  99 N10       29.98F
$$

ILZ033-039-045-046-055>057-062-063-230500-
EAST-CENTRAL ILLINOIS

CITY           SKY/WX    TMP DP  RH WIND       PRES   REMARKS
CHAMPAIGN      RAIN      54  52  93 N12       29.97F FOG
DANVILLE*      RAIN      54  54  99 N7        29.95F
RANTOUL*       HVY RAIN  55  54  97 N13       29.97F
MATTOON        RAIN      53  53 100 N12       29.94F FOG
PARIS*         CLOUDY    55  55 100 N6        29.96F
$$

ILZ079-100>102-230500-
SOUTHWEST ILLINOIS

CITY           SKY/WX    TMP DP  RH WIND       PRES   REMARKS
ALTON          RAIN      51  51 100 NW7       30.00F
BELLEVILLE     RAIN      53  50  91 NW8       30.01F
CAHOKIA*       LGT RAIN  53  50  89 NW9       30.02R FOG
SPARTA*        RAIN      52  52 100 W8        29.99S
$$

ILZ064>066-069>071-074>076-080>082-084>086-088>090-092>094-230500-
SOUTH-CENTRAL ILLINOIS

CITY           SKY/WX    TMP DP  RH WIND       PRES   REMARKS
CARBONDALE     LGT RAIN  54  54 100 W8        29.94S
CAIRO*         LGT RAIN  54  54  98 NW13      29.91F
EFFINGHAM*     HVY RAIN  54  54 100 N8        29.95F
MARION         RAIN      56  55  99 NW5       29.93S
MT. VERNON     RAIN      54  53  97 N7        29.92F
CENTRALIA*     LGT RAIN  55  54  99 N9G17     29.92F
SALEM*         RAIN      55  53  92 N12       29.93F
METROPOLIS*    RAIN      57  57  97 W9G18     29.90R
$$

ILZ067-068-072-073-078-083-087-091-230500-
SOUTHEAST ILLINOIS

CITY           SKY/WX    TMP DP  RH WIND       PRES   REMARKS
LAWRENCEVILLE  LGT RAIN  65  65 100 SE5       29.93F
FLORA*         LGT RAIN  56  55  95 N7        29.89S
FAIRFIELD*     RAIN      55  55 100 N3        29.90F
HARRISBURG*    HVY RAIN  57  57 100 N5        29.89F
ROBINSON*      LGT RAIN  58  58 100 NE3       29.94F
CARMI*         HVY RAIN  65  65 100 S5        29.88F
$$

ABBREVIATIONS USED IN REMARKS
   TC - TEMPERATURE IN CELSIUS
  WCI - WIND CHILL INDEX
   HX - HEAT INDEX
  VSB - VISIBILITY
$$




USA.gov is the U.S. government's official web portal to all federal, state and local government web resources and services.